CZ-6A DEB, 56626

Orbit data source: Space-Track

CZ-6A DEB, 56626 is space debris in SSO originally from a launch on Fri, 11 Nov 2022 UTC launched from the Taiyaun Space Center, China (TSC). Debris objects in space refer to the collection of defunct objects orbiting the Earth. Examples of debris include non-operational satellites, rocket bodies, and fragments generated from explosions, collisions, or faulty payload assembly.

Loading next visibility...
Identifier
56626, 2022-151AFA
Orbit
SSO
Country
Flag of CNCN / PRC
Related business
Manufacturer
SAST
Mission
Spacecraft
Bus & Motor
Unknown
Mass
Unknown
Launch date (UTC)
2022-11-11 (3 years ago)
Launch vehicle
Unknown
Launch site
Taiyaun Space Center, China (TSC)
Object type
Payload
Rocket body
Debris
Shape & HBR
Unknown shape, 0.1 m
Radar Cross Section
Small (<0.1 m²)

Expand to show TLE details & history
Last TLE update: 2 days ago

TLE from 2 days ago
0 CZ-6A DEB
1 56626U 22151AFA 25350.35365499  .00000750  00000-0  35034-3 0  9995
2 56626  98.8313  17.8770 0007658 232.9131 127.1347 14.23390720137946
Epoch: 2025-12-16T08:29Z
TLE epoch observation values (Epoch: 2025-12-16T08:29:15.791Z)
Latitude
-0.00005°
Longitude
165.32213°
Altitude
820.152 km
Speed
7.441 km/s
True Right ascension
01h 11m 30s
True Declination
0° 00' 00"
Sunlit
Object was in daylight at epoch
Visualization orbit readout
Latitude
Unknown
Longitude
Unknown
Altitude
Unknown
Speed
Unknown
Apparent Right ascension
Unknown
Apparent Declination
Unknown
Sunlit
N/A
Visualization observer readout
Local Sidereal Time
00:27:32
Azimuth
Unknown
Elevation
Unknown
Doppler factor
Unknown
Orbital elements
Apogee altitude
816.574 km
Perigee altitude
805.563 km
Semi-major axis
7,189.205 km
Eccentricity
0.00077
Inclination
98.8313°
RAAN
17.877°
Arg. of periapsis
232.9131°
True anomaly
127.20462°
Mean anomaly
127.1347°
Eccentric anomaly
127.16966°
Mean motion
3.56059 °/min
Orbital period
101.11 mins
BSTAR
0.00035034
Loading maneuver chart data...
Computing Atmospheric mass density...
Loading historical data...
Loading historical data...
Loading historical data...
Loading historical data...
Loading historical data...
Loading historical data...
Loading historical data...

Documentation

Showing up to 5 results
|